Regional Weather Roundup
Issued by NWS Cleveland, OH

Home | Current Version | Previous Version | Graphics & Text | Print | Product List | Glossary On
Versions: 1 2 3 4 5 6 7 8 9 10 11 12 13 14 15 16 17 18 19 20 21 22 23 24 25 26 27 28 29 30 31 32 33 34 35 36 37 38 39 40 41 42 43 44 45 46 47 48 49 50
000
ASUS41 KCLE 261610
RWRCLE
OHIO REGIONAL WEATHER ROUNDUP
NATIONAL WEATHER SERVICE WILMINGTON, OH
1200 PM EDT TUE MAY 26 2015

NOTE: "FAIR" INDICATES FEW OR NO CLOUDS BELOW 12,000 FEET WITH NO
SIGNIFICANT WEATHER AND/OR OBSTRUCTIONS TO VISIBILITY.

OHZ001>008-015>018-024>027-034-035-043-044-261700-
   NORTHWEST OHIO

CITY           SKY/WX    TMP DP  RH WIND       PRES   REMARKS
DEFIANCE       MOSUNNY   80  65  59 SW10G16   30.02F
FINDLAY        MOSUNNY   82  64  54 S12G25    30.05F
TOLEDO EXPRESS PTSUNNY   77  64  64 S10       30.04F
TOLEDO EXEC    CLOUDY    80  63  55 S15G23    30.05F
LIMA           SUNNY     80  63  55 S15G22    30.05F
$$

OHZ009>014-019>023-028>033-038-089-261700-
   NORTHEAST OHIO

CITY           SKY/WX    TMP DP  RH WIND       PRES   REMARKS
CLE-HOPKINS    PTSUNNY   77  65  66 SW12      30.12S
CLE-LAKEFRONT  CLOUDY    78  63  59 SW16G23   30.09S
CUY CO. ARPT   CLOUDY    79  68  69 SW9       30.12S
LORAIN-ELYRIA  PTSUNNY   80  63  55 W13       30.10F
ASHTABULA      PTSUNNY   76  65  68 SW8       30.13S
AKRON-CANTON   CLOUDY    76  63  64 SW20G29   30.15S
WOOSTER        PTSUNNY   76  62  62 S16G24    30.14S
MANSFIELD      MOSUNNY   78  64  61 S15G22    30.13F
YOUNGSTOWN     CLOUDY    75  64  68 SW10      30.15F
$$

OHZ042-051>053-060>062-070>072-077>081-261700-
  SOUTHWEST OHIO

CITY           SKY/WX    TMP DP  RH WIND       PRES   REMARKS
CINC-COVINGTON MOSUNNY   81  66  60 S17G24    30.08F
CINC-LUNKEN    PTSUNNY   81  66  60 S16G23    30.07F
HAMILTON       MOSUNNY   82  65  56 S8        30.07F
DAYTON         MOSUNNY   81  64  56 S17G23    30.07F
WRIGHT-PAT AFB MOSUNNY   81  64  55 S16       30.07F
DAYTON GENERAL MOSUNNY   78  66  66 S15       30.07F
WILMINGTON     SUNNY     81  62  52 SW14G25   30.09F
$$

OHZ036-037-039>041-045>050-054>059-063>069-073>076-082>088-261700-
  CENTRAL AND SOUTHEAST OHIO

CITY           SKY/WX    TMP DP  RH WIND       PRES   REMARKS
COLUMBUS       PTSUNNY   80  64  58 S12G18    30.11F
OSU AIRPORT    MOSUNNY   80  64  58 S13       30.10F
BOLTON FIELD   PTSUNNY   81  64  57 S14G21    30.11F
RICKENBACK AFB CLOUDY    78  66  66 S15G22    30.11F
NEWARK         PTSUNNY   78  67  68 S12       30.13F
MARION         MOSUNNY   79  64  60 S18G25    30.10F
LANCASTER      MOSUNNY   79  65  62 S12       30.14F
ZANESVILLE     CLOUDY    75  65  70 S9        30.16F
NEW PHILLY     LGT RAIN  76  66  71 S6        30.17F
$$


USA.gov is the U.S. government's official web portal to all federal, state and local government web resources and services.